Weather Roundup
Issued by NWS Corpus Christi, TX

Home | Current Version | Previous Version | Text Only | Print | Product List | Glossary On
Versions: 1 2 3 4 5 6 7 8 9 10 11 12 13 14 15 16 17 18 19 20 21 22 23 24 25 26 27 28 29 30 31 32 33 34 35 36 37 38 39 40 41 42 43 44 45 46 47 48 49 50
000
ASUS44 KCRP 230610
HRRCRP

SOUTH TEXAS REGIONAL WEATHER ROUNDUP
NATIONAL WEATHER SERVICE CORPUS CHRISTI TX
100 AM CDT SAT MAY 23 2015


TXZ229>244-230700-
...CORPUS CHRISTI AREA OBSERVATIONS...

CITY           SKY/WX    TMP DP  RH WIND       PRES   REMARKS
CORPUS CHRISTI MOCLDY    79  75  87 SE9       30.04R
NAS CORPUS CHR MOCLDY   N/A N/A N/A SE15      30.04S
ROCKPORT       MOCLDY    80  75  84 SE14      30.03F
KINGSVILLE NAS MOCLDY    79  78  97 SE6       30.03S
ALICE          MOCLDY    77  75  93 SE5       30.03S
FALFURRIAS     MOCLDY    77  75  92 SE3       30.03S
$$

...VICTORIA AREA OBSERVATIONS...

CITY           SKY/WX    TMP DP  RH WIND       PRES   REMARKS
VICTORIA       MOCLDY    74  74 100 E7        30.06S FOG
BEEVILLE       FAIR      76  76 100 E6        30.05S
PLEASANTON     CLOUDY    76  73  90 SE7       30.06R
SAN ANTONIO    CLOUDY    77  73  87 SE12      30.07R
$$

...LAREDO AREA OBSERVATIONS...

CITY           SKY/WX    TMP DP  RH WIND       PRES   REMARKS
LAREDO         MOCLDY    79  73  81 SE13      30.02F
COTULLA        CLOUDY    78  74  87 SE12      30.02S
DEL RIO        CLOUDY    77  71  82 SE8       30.01R
MCALLEN        MOCLDY    79  75  87 SE9       30.03S
HEBBRONVILLE     N/A     76  73  92 SE12      30.05S
$$

...OTHER TEXAS OBSERVATIONS...

CITY           SKY/WX    TMP DP  RH WIND       PRES   REMARKS
BROWNSVILLE    PTCLDY    79  76  90 SE10      30.03S
HOUSTON        PTCLDY    73  72  96 SE8       30.09S
COL. STATION   CLEAR     72  68  87 SE10      30.08F
AUSTIN         CLOUDY    74  72  93 SE8       30.06F
WACO           CLOUDY    72  68  87 SE10      30.07F
FORT WORTH     CLOUDY    67  66  97 E3        30.08F
WICHITA FALLS  LGT RAIN  60  59  96 E7        30.09F FOG
LUBBOCK        DRZL/FOG  61  61 100 SE14      30.05F VSB 1/4
EL PASO        CLOUDY    78  16   9 W24G33    29.94R
$$

...MARINE OBSERVATIONS...

STATION/POSITION TIME  SKY/WX   TEMP    WIND        PRES    VSBY  WAVE   SWELL
                                AIR SEA DIR/SP/G                  HT/PER HT/PER
                 (UTC)          (F)     (DEG/KT/KT) (MB)    (MI)  (FT/S) (FT/S)
PORT ARANSAS     0600            80 81  120/ 15/ 17 1017.7R
BUOY 90 E PORT A 0550            80 80  130/ 12/ 16 1018.6R         3/ 5
BUOY 45 SE BAFFI 0550            81 80  140/ 16/ 19 1017.0R         4/ 6
BUOY 200 E PT IS 0550            81 81  110/ 14/ 16 1018.0S         3/ 6
BUOY 15 E GALVES 0550            79 80  110/ 16/ 17 1018.5S         3/ 4
$$


USA.gov is the U.S. government's official web portal to all federal, state and local government web resources and services.